This is the latest recevied weather packets stored in our database for station/object VO2AGO. If no packets are shown the sender has not sent any weather packets the latest 10 day(s).
| Time | Temp. | Humidity | Pressure | Rain* | Wind** | Luminosity | Snow |
|---|---|---|---|---|---|---|---|
| 1778074549 | 5° C | - | - | - | 0 m/s | 1338 W/m² | - |
| 1778074100 | 4.44° C | - | - | - | 0 m/s | 1299 W/m² | - |
| 1778073200 | 3.89° C | - | - | - | 0 m/s | 1210 W/m² | - |
| 1778072749 | 3.89° C | - | - | - | 0 m/s | 1212 W/m² | - |
| 1778072300 | 2.78° C | - | - | - | 0 m/s | 1184 W/m² | - |
| 1778071850 | 4.44° C | 93% | 100.8 hPa | 0 mm | 0 m/s | 1384 W/m² | - |
| 1778071399 | 5.56° C | 85% | 100.8 hPa | 0 mm | 0 m/s | 1036 W/m² | - |
| 1778070950 | 5.56° C | 89% | 100.8 hPa | 0 mm | 0 m/s | 1515 W/m² | - |
| 1778070500 | 5° C | 91% | 100.8 hPa | 0 mm | 0 m/s | 1605 W/m² | - |
| 1778070051 | 4.44° C | 95% | 100.8 hPa | 0 mm | 0 m/s | 1506 W/m² | - |
| 1778069601 | 4.44° C | - | - | - | 0 m/s | 1440 W/m² | - |
| 1778069150 | 3.89° C | - | - | - | 0 m/s | 1363 W/m² | - |
| 1778068699 | 3.33° C | - | - | - | 0 m/s | 1294 W/m² | - |
| 1778068249 | 2.78° C | - | - | - | 0 m/s | 1220 W/m² | - |
| 1778067799 | 2.78° C | - | - | - | 0 m/s | 1154 W/m² | - |
| 1778067349 | 2.22° C | - | - | - | 0 m/s | 1078 W/m² | - |
| 1778066899 | 2.22° C | - | - | - | 0 m/s | 1027 W/m² | - |
| 1778066449 | 2.22° C | - | - | - | 0 m/s | 358 W/m² | - |
| 1778065999 | 1.67° C | - | - | - | 0 m/s | 913 W/m² | - |
| 1778065550 | 1.67° C | - | - | - | 0 m/s | 866 W/m² | - |
| 1778065100 | 1.67° C | - | - | - | 0 m/s | 402 W/m² | - |
| 1778064649 | 1.11° C | - | - | - | 0 m/s | 831 W/m² | - |
| 1778064199 | 1.11° C | - | - | - | 0 m/s | 332 W/m² | - |
| 1778063749 | 0.56° C | - | - | - | 0 m/s | 350 W/m² | - |
| 1778063299 | 0.56° C | - | - | - | 0 m/s | 356 W/m² | - |
* Rain since midnight (hover to see other rain measurements)
** Current wind speed in m/s (hover to see current wind gust speed)